Location: Oberkirch
(48.5323°N, 8.0787°E)
Time: 12:48:04
(UTC+00:00)

CUBEBUG 2 - Pass Details

Date: 23 March 2026
Orbit: 548 x 627 km, 97.9° (Epoch: 14 April)

Event Time Altitude Azimuth Distance (km) Brightness Sun altitude
Rises 01:19:37 0° 20° (NNE) 2,920 ? -35.5°
Reaches altitude 10° 01:21:58 10° 29° (NNE) 2,012 ? -35.3°
Enters shadow 01:23:37 21° 41° (NE) 1,433 ? -35.1°
